Regional Weather Roundup
Issued by NWS Wilmington, NC

Home | Current Version | Previous Version | Text Only | Print | Product List | Glossary On
Versions: 1 2 3 4 5 6 7 8 9 10 11 12 13 14 15 16 17 18 19 20 21 22 23 24 25 26 27 28 29 30 31 32 33 34 35 36 37 38 39 40 41 42 43 44 45 46 47 48 49 50
000
ASUS42 KILM 221614
RWRILM
RWRILM
REGIONAL HOURLY WEATHER ROUNDUP
NATIONAL WEATHER SERVICE WILMINGTON NC
1100 AM EST MON JAN 22 2018

NOTE: "FAIR" INDICATES FEW OR NO CLOUDS BELOW 12,000 FEET WITH NO
SIGNIFICANT WEATHER AND/OR OBSTRUCTIONS TO VISIBILITY.

...............WFO WILMINGTON COUNTY WARNING AREA...............

......COASTAL NC AND SC COUNTIES......

CITY           SKY/WX    TMP DP  RH WIND       PRES   REMARKS
WILMINGTON     FAIR      59  41  51 SE8       30.23F
N MYRTLE BEACH FAIR      57  45  64 E3        30.21F
MYRTLE BEACH   PTSUNNY   56  45  66 VRB5      30.23F

......INLAND NC AND SC COUNTIES.......

CITY           SKY/WX    TMP DP  RH WIND       PRES   REMARKS
LUMBERTON      FAIR      55  45  68 CALM      30.21F
ELIZABETHTOWN  NOT AVBL
WHITEVILLE     FAIR      56  42  59 CALM      30.21F
FLORENCE       FAIR      56  42  59 CALM      30.22S
DARLINGTON     FAIR      52  44  74 N3        30.23R
KINGSTREE      PTSUNNY   55  45  67 CALM      30.22S
HARTSVILLE     FAIR      54  43  66 CALM      30.22S
BENNETTSVILLE  FAIR      54  45  71 CALM      30.23R
CONWAY         PTSUNNY   57  45  62 CALM      30.22S HAZE
GEORGETOWN     CLOUDY    55  48  76 CALM      30.23S
MARION         FAIR      54  41  62 CALM      30.23S

....................REST OF NORTH CAROLINA......................

.........EASTERN NC.........

CITY           SKY/WX    TMP DP  RH WIND       PRES   REMARKS
CAPE HATTERAS  NOT AVBL
JACKSONVILLE   FAIR      59  42  53 VRB5      30.23F
MOREHEAD CITY  FAIR      60  42  51 SE5       30.24S
KENANSVILLE    FAIR      57  43  58 S5        30.23F
NEW BERN       FAIR      57  41  55 SE3       30.24F
ELIZABETH CITY FAIR      60  52  74 S3        30.24F

.........CENTRAL NC.........

CITY           SKY/WX    TMP DP  RH WIND       PRES   REMARKS
RALEIGH DURHAM CLOUDY    57  45  64 CALM      30.20F
ROCKY MOUNT    FAIR      57  45  64 CALM      30.22F
ROANOKE RAPIDS NOT AVBL
FAYETTEVILLE   FAIR      54  43  66 S3        30.22S
HOFFMAN        FAIR      50  42  73 CALM      30.21F

.........WESTERN NC.........

CITY           SKY/WX    TMP DP  RH WIND       PRES   REMARKS
CHARLOTTE      CLOUDY    55  42  61 S3        30.21R
GREENSBORO     CLOUDY    52  43  71 SW6       30.18S
HICKORY        NOT AVBL
BOONE          NOT AVBL
ASHEVILLE      NOT AVBL

.....................REST OF SOUTH CAROLINA.....................

.........EASTERN SC.........

CITY           SKY/WX    TMP DP  RH WIND       PRES   REMARKS
CHARLESTON     PTSUNNY   63  51  65 SE5       30.21S
BEAUFORT MCAS  PTSUNNY   61  51  70 E6        30.20S
HILTON HEAD    MOSUNNY   61  50  67 MISG      30.20F

.........CENTRAL SC.........

CITY           SKY/WX    TMP DP  RH WIND       PRES   REMARKS
COLUMBIA       PTSUNNY   53  43  68 CALM      30.20F
ORANGEBURG     PTSUNNY   55  42  61 E3        30.20F
SUMTER SHAW    PTSUNNY   54  41  61 CALM      30.19F

.........WESTERN SC.........

CITY           SKY/WX    TMP DP  RH WIND       PRES   REMARKS
GREENVILLE     NOT AVBL
ROCK HILL      FAIR      53  43  68 S3        30.21S
ANDERSON       FAIR      55  43  63 E5        30.16F
CLEMSON        NOT AVBL
GREENWOOD      PTSUNNY   52  44  74 CALM      30.20F


...................COASTAL AND OFFSHORE REPORTS..................

................LOCAL PIERS AND NC RESERVE................


STATION/POSITION TIME  SKY/WX   TEMP    WIND        PRES    VSBY
                                AIR SEA DIR/SP/G
                 (UTC)          (F)     (DEG/KT/KT) (MB)    (MI)
JOHNY MRCER PIER 1536            49 49   40/  5/  5 1023.8F
NC RESRV MASNBRO 1445            50      90/  2     1023.0
OCEAN CREST PIER NOT AVBL
SPRINGMAID  PIER 1536                               1026.4F


................COASTAL AND OFFSHORE BUOYS................


STATION/POSITION TIME  SKY/WX   TEMP    WIND        PRES    VSBY
                                AIR SEA DIR/SP/G
                 (UTC)          (F)     (DEG/KT/KT) (MB)    (MI)
DIMNDSHOAL 41025 1600            65     180/  4/  8 1024.3
CAPE LOOKOUT     1600                    50/  6/  6 1023.9F
ONSLOW BAY 41036 NOT AVBL
ONSLOW BAY 41064 1508            60 59   90/  4/  6 1024.1R
ONSLOW BAY 41159 1600               60                N/A
WVE H/P(F/S)=  1/10

MASNBO INL 41110 1559               46                N/A
WVE H/P(F/S)=  1/11

WILM HARBR 41108 1600               48                N/A
WVE H/P(F/S)=  1/11

27SE WRITB 41037 1508            62 63   90/  8/ 10 1023.7R
FRYING PAN 41013 1600            68     120/  4/  6 1023.1
SUNST NRSH 41024 1508            47      40/  2/  2 1023.5R
CAPRS NRSH 41029 1508            48 50   70/  8/ 10 1022.4F
EDISTO     41004 1600            66     180/  4/  4 1023.0


..........OFFSHORE BUOYS BEYOND 100 NM OFFSHORE...........
.....IN A TRIANGLE---HAT TO BERMUDA TO BAHAMAS TO HAT.....


STATION/POSITION TIME  SKY/WX   TEMP    WIND        PRES    VSBY
                                AIR SEA DIR/SP/G
                 (UTC)          (F)     (DEG/KT/KT) (MB)    (MI)
150E HAT   41001 NOT AVBL
W BERMUDA  41048 1600            69     210/  6/  8 1025.5
ATLANTIC S 41049 1550            68 76  330/  6/  8 1025.1F
WVE H/P(F/S)=  6/ 9 SWL H/P/D(F/S/D)=  5/ 20/ 9

E BAHAMAS  41046 1600            77      90/ 16/ 19 1021.1
NE BAHAMAS 41047 1550            72     100/ 14/ 16 1023.7F
WVE H/P(F/S)=  5/ 6 SWL H/P/D(F/S/D)=  3/140/ 6

120E CANVRL41010 NOT AVBL

END



USA.gov is the U.S. government's official web portal to all federal, state and local government web resources and services.